Zurück zum Katalog

ATLAS 5 CENTAUR DEB

AktivHEO
NORAD 43982·DEBRIS·🇺🇸 United States

Gestartet Sep 17, 2014 von Cape Canaveral Space Force Station

Loading…

Nächste Überflüge (nächste 24 Stunden)

TLE

AktuellSource: Space-Track

Epoche: Sep 8, 2026, 08:38 UTC

1 43982U 14055AM  26251.36022196 -.00000019  00000-0  00000-0 0  9997
2 43982  19.0259 184.8034 4717681  93.5289 319.4248  1.75459340 51276

Verfolge ATLAS 5 CENTAUR DEB in Echtzeit mit AllMySat

Download on the App Store